When you browse on this site, cookies collect data to enhance your experience and personalize the content and advertising you see.
Visit our Privacy Policy to learn more. By continuing to use the site, you agree to this use of cookies and data.

Hourly Weather Dashkino

Today, 9 July, Thursday

Time Temperature Precipitation Wind Pressure Humidity
00:00 +12°C° 0.4 mm 4 mps 741 mmHg 96%
01:00 +12°C° 0.4 mm 5 mps 741 mmHg 97%
02:00 +10°C° 0.4 mm 5 mps 741 mmHg 97%
03:00 +10°C° 1.9 mm 5 mps 741 mmHg 97%
04:00 +11°C° 1.9 mm 4 mps 741 mmHg 97%
05:00 +11°C° 1.9 mm 4 mps 741 mmHg 97%
06:00 +11°C° 1.3 mm 4 mps 741 mmHg 97%
07:00 +11°C° 1.3 mm 4 mps 741 mmHg 96%
08:00 +11°C° 1.3 mm 4 mps 741 mmHg 96%
09:00 +13°C° 0.1 mm 3 mps 742 mmHg 88%
10:00 +14°C° 0.1 mm 3 mps 742 mmHg 81%
11:00 +17°C° 0.1 mm 3 mps 743 mmHg 74%
12:00 +18°C° 0.1 mm 3 mps 743 mmHg 68%
13:00 +19°C° 0.1 mm 3 mps 744 mmHg 62%
14:00 +21°C° 0.1 mm 2 mps 744 mmHg 57%
15:00 +20°C° 0.1 mm 2 mps 744 mmHg 60%
16:00 +20°C° 0.1 mm 2 mps 744 mmHg 63%
17:00 +20°C° 0.1 mm 2 mps 744 mmHg 67%
18:00 +18°C° 0.1 mm 2 mps 744 mmHg 74%
19:00 +16°C° 0.1 mm 2 mps 744 mmHg 82%
20:00 +15°C° 0.1 mm 2 mps 744 mmHg 89%
21:00 +14°C° 0 mm 2 mps 745 mmHg 91%
22:00 +13°C° 0 mm 2 mps 745 mmHg 93%
23:00 +12°C° 0 mm 2 mps 745 mmHg 95%

Tomorrow, 10 July, Friday

Time Temperature Precipitation Wind Pressure Humidity
00:00 +12°C° 0 mm 2 mps 745 mmHg 95%
01:00 +10°C° 0 mm 2 mps 746 mmHg 95%
02:00 +10°C° 0 mm 2 mps 746 mmHg 96%
03:00 +10°C° 0 mm 2 mps 746 mmHg 93%
04:00 +12°C° 0 mm 2 mps 747 mmHg 91%
05:00 +12°C° 0 mm 2 mps 747 mmHg 89%
06:00 +14°C° 0 mm 2 mps 747 mmHg 82%
07:00 +16°C° 0 mm 2 mps 748 mmHg 75%
08:00 +17°C° 0 mm 3 mps 748 mmHg 67%
09:00 +18°C° 0 mm 3 mps 748 mmHg 63%
10:00 +19°C° 0 mm 3 mps 748 mmHg 59%
11:00 +20°C° 0 mm 3 mps 748 mmHg 55%
12:00 +21°C° 0 mm 3 mps 748 mmHg 54%
13:00 +21°C° 0 mm 3 mps 748 mmHg 54%
14:00 +22°C° 0 mm 3 mps 748 mmHg 53%
15:00 +21°C° 0 mm 3 mps 748 mmHg 57%
16:00 +21°C° 0 mm 3 mps 748 mmHg 61%
17:00 +21°C° 0 mm 3 mps 748 mmHg 65%
18:00 +19°C° 0.1 mm 3 mps 748 mmHg 70%
19:00 +18°C° 0.1 mm 3 mps 748 mmHg 74%
20:00 +17°C° 0.1 mm 3 mps 748 mmHg 78%
21:00 +17°C° 0 mm 3 mps 748 mmHg 74%
22:00 +17°C° 0 mm 4 mps 748 mmHg 69%
23:00 +17°C° 0 mm 4 mps 748 mmHg 64%

Day after tomorrow, 11 July, Saturday

Time Temperature Precipitation Wind Pressure Humidity
00:00 +17°C° 0.1 mm 4 mps 747 mmHg 70%
01:00 +17°C° 0.1 mm 4 mps 747 mmHg 76%
02:00 +15°C° 0.1 mm 4 mps 747 mmHg 81%
03:00 +15°C° 0.1 mm 5 mps 747 mmHg 85%
04:00 +15°C° 0.1 mm 5 mps 747 mmHg 88%
05:00 +15°C° 0.1 mm 5 mps 747 mmHg 92%
06:00 +16°C° 0 mm 5 mps 747 mmHg 90%
07:00 +17°C° 0 mm 5 mps 747 mmHg 87%
08:00 +19°C° 0 mm 5 mps 747 mmHg 85%
09:00 +19°C° 0 mm 5 mps 747 mmHg 83%
10:00 +20°C° 0 mm 5 mps 747 mmHg 81%
11:00 +21°C° 0 mm 5 mps 748 mmHg 79%
12:00 +22°C° 0 mm 4 mps 747 mmHg 77%
13:00 +23°C° 0 mm 4 mps 747 mmHg 75%
14:00 +23°C° 0 mm 4 mps 747 mmHg 72%
15:00 +24°C° 0.3 mm 3 mps 747 mmHg 77%
16:00 +24°C° 0.3 mm 3 mps 747 mmHg 81%
17:00 +24°C° 0.3 mm 3 mps 746 mmHg 85%
18:00 +22°C° 0.8 mm 3 mps 746 mmHg 88%
19:00 +21°C° 0.8 mm 3 mps 746 mmHg 91%
20:00 +21°C° 0.8 mm 3 mps 746 mmHg 94%
21:00 +20°C° 0.4 mm 3 mps 746 mmHg 94%
22:00 +20°C° 0.4 mm 3 mps 746 mmHg 95%
23:00 +20°C° 0.4 mm 3 mps 746 mmHg 96%

12 July, Sunday

Time Temperature Precipitation Wind Pressure Humidity
00:00 +20°C° 0.6 mm 3 mps 746 mmHg 96%
01:00 +20°C° 0.6 mm 3 mps 746 mmHg 97%
02:00 +19°C° 0.6 mm 2 mps 747 mmHg 98%
03:00 +19°C° 0.5 mm 2 mps 747 mmHg 98%
04:00 +18°C° 0.5 mm 2 mps 747 mmHg 98%
05:00 +18°C° 0.5 mm 2 mps 747 mmHg 98%
06:00 +18°C° 0.3 mm 2 mps 747 mmHg 96%
07:00 +19°C° 0.3 mm 1 mps 747 mmHg 94%
08:00 +19°C° 0.3 mm 1 mps 747 mmHg 92%
09:00 +19°C° 0.3 mm 1 mps 748 mmHg 93%
10:00 +19°C° 0.3 mm 1 mps 748 mmHg 93%
11:00 +19°C° 0.3 mm 1 mps 748 mmHg 93%
12:00 +20°C° 0.4 mm 1 mps 748 mmHg 91%
13:00 +19°C° 0.4 mm 2 mps 748 mmHg 88%
14:00 +20°C° 0.4 mm 2 mps 748 mmHg 86%
15:00 +20°C° 0 mm 2 mps 747 mmHg 85%
16:00 +20°C° 0 mm 2 mps 747 mmHg 83%
17:00 +20°C° 0 mm 2 mps 747 mmHg 81%
18:00 +19°C° 0 mm 2 mps 747 mmHg 84%
19:00 +18°C° 0 mm 2 mps 747 mmHg 87%
20:00 +18°C° 0 mm 2 mps 747 mmHg 89%
21:00 +17°C° 0 mm 2 mps 747 mmHg 91%
22:00 +17°C° 0 mm 2 mps 747 mmHg 92%
23:00 +17°C° 0 mm 2 mps 746 mmHg 94%

13 July, Monday

Time Temperature Precipitation Wind Pressure Humidity
00:00 +17°C° 0.4 mm 2 mps 746 mmHg 95%
01:00 +16°C° 0.4 mm 3 mps 746 mmHg 95%
02:00 +16°C° 0.4 mm 3 mps 745 mmHg 96%
03:00 +17°C° 1.1 mm 3 mps 745 mmHg 97%
04:00 +17°C° 1.1 mm 3 mps 745 mmHg 97%
05:00 +17°C° 1.1 mm 3 mps 744 mmHg 98%
06:00 +18°C° 0 mm 3 mps 744 mmHg 96%
07:00 +18°C° 0 mm 3 mps 744 mmHg 95%
08:00 +19°C° 0 mm 3 mps 744 mmHg 94%
09:00 +20°C° 0 mm 3 mps 743 mmHg 90%
10:00 +21°C° 0 mm 3 mps 743 mmHg 86%
11:00 +22°C° 0 mm 3 mps 743 mmHg 83%
12:00 +22°C° 0.9 mm 3 mps 742 mmHg 86%
13:00 +21°C° 0.9 mm 3 mps 742 mmHg 89%
14:00 +21°C° 0.9 mm 3 mps 741 mmHg 93%
15:00 +21°C° 1.2 mm 2 mps 741 mmHg 94%
16:00 +20°C° 1.2 mm 2 mps 740 mmHg 95%
17:00 +20°C° 1.2 mm 2 mps 740 mmHg 97%
18:00 +20°C° 1.3 mm 2 mps 740 mmHg 97%
19:00 +19°C° 1.3 mm 2 mps 739 mmHg 98%
20:00 +19°C° 1.3 mm 2 mps 739 mmHg 98%
21:00 +19°C° 1 mm 2 mps 738 mmHg 98%
22:00 +19°C° 1 mm 2 mps 738 mmHg 98%
23:00 +19°C° 1 mm 2 mps 737 mmHg 98%

14 July, Tuesday

Time Temperature Precipitation Wind Pressure Humidity
00:00 +19°C° 1 mm 2 mps 737 mmHg 98%
01:00 +19°C° 1 mm 2 mps 737 mmHg 99%
02:00 +19°C° 1 mm 2 mps 737 mmHg 99%
03:00 +19°C° 0.6 mm 2 mps 736 mmHg 99%
04:00 +19°C° 0.6 mm 2 mps 736 mmHg 99%
05:00 +19°C° 0.6 mm 2 mps 735 mmHg 99%
06:00 +19°C° 0.3 mm 2 mps 735 mmHg 98%
07:00 +20°C° 0.3 mm 2 mps 735 mmHg 97%
08:00 +20°C° 0.3 mm 2 mps 735 mmHg 97%
09:00 +21°C° 1.1 mm 2 mps 735 mmHg 95%
10:00 +21°C° 1.1 mm 2 mps 735 mmHg 93%
11:00 +23°C° 1.1 mm 2 mps 735 mmHg 91%
12:00 +24°C° 1.3 mm 2 mps 735 mmHg 89%
13:00 +24°C° 1.3 mm 2 mps 734 mmHg 87%
14:00 +25°C° 1.3 mm 2 mps 734 mmHg 86%
15:00 +24°C° 1.3 mm 3 mps 734 mmHg 87%
16:00 +22°C° 1.3 mm 3 mps 734 mmHg 89%
17:00 +22°C° 1.3 mm 4 mps 734 mmHg 91%
18:00 +21°C° 0.2 mm 4 mps 734 mmHg 92%
19:00 +20°C° 0.2 mm 4 mps 734 mmHg 93%
20:00 +18°C° 0.2 mm 4 mps 734 mmHg 95%
21:00 +18°C° 0 mm 4 mps 734 mmHg 94%
22:00 +17°C° 0 mm 4 mps 734 mmHg 94%
23:00 +15°C° 0 mm 4 mps 734 mmHg 94%
Show more